Regional Weather Roundup
Issued by NWS

Home | Current Version | Previous Version | Text Only | Print | Product List | Glossary Off
Versions: 1 2 3 4 5 6 7 8 9 10 11 12 13 14 15 16 17 18 19 20 21 22 23 24 25 26 27 28 29 30 31 32 33 34 35 36 37 38 39 40 41 42 43 44 45 46 47 48 49 50

693
ASUS43 KBIS 100310
RWRND

NORTH DAKOTA REGIONAL WEATHER ROUNDUP
NATIONAL WEATHER SERVICE BISMARCK ND
900 PM CST TUE FEB 09 2016

NOTE: "FAIR" INDICATES FEW OR NO CLOUDS BELOW 12,000 FEET WITH NO
SIGNIFICANT WEATHER AND/OR OBSTRUCTIONS TO VISIBILITY.


NDZ001>003-009>011-017-100400-
NORTHWEST NORTH DAKOTA

CITY           SKY/WX    TMP DP  RH WIND       PRES   REMARKS
WILLISTON      CLOUDY    30  24  78 SW3       30.00F
MINOT          FLURRIES  24  15  68 E13       30.08F WCI  12
MINOT AFB      CLOUDY    19  18  93 SE14      30.07F WCI   6
$$

NDZ018>021-031>035-040>046-100400-
SOUTHWEST NORTH DAKOTA

CITY           SKY/WX    TMP DP  RH WIND       PRES   REMARKS
BISMARCK       CLOUDY    35  22  58 NE3       30.08F
DICKINSON      PTCLDY    26  20  77 S5        30.00F
GARRISON         N/A     29  21  72 E9        30.04F
HETTINGER ARPT CLOUDY    27  20  75 SE3       30.04F
$$

NDZ004>008-012>016-024-026-027-054-100400-
NORTHEAST NORTH DAKOTA

CITY           SKY/WX    TMP DP  RH WIND       PRES   REMARKS
GRAND FORKS    CLOUDY     4  -3  73 N9        30.25F WCI -10
GRND FRKS AFB  CLOUDY     3  -2  79 NE6       30.23F WCI  -8
DEVILS LAKE    CLOUDY    10   4  76 E8        30.17F WCI  -2
$$

NDZ022-023-025-028>030-036>039-047>053-100400-
SOUTHEAST NORTH DAKOTA

CITY           SKY/WX    TMP DP  RH WIND       PRES   REMARKS
FARGO          PTCLDY     8   2  76 NE10      30.24R WCI  -6
JAMESTOWN      CLOUDY    14   8  77 E9        30.15R WCI   2
$$





USA.gov is the U.S. government's official web portal to all federal, state and local government web resources and services.